Time,TemperatureF,DewpointF,PressureIn,WindDirection,WindDirectionDegrees,WindSpeedMPH,WindSpeedGustMPH,Humidity,HourlyPrecipIn,Conditions,Clouds,dailyrainin,SoftwareType,DateUTC
2013-06-29 00:02:00,72.1,58.8,29.24,WSW,258,0.0,0.0,63,0.00,,,0.00,Wunderground v.1.15,2013-06-29 05:02:00,
2013-06-29 00:08:00,71.7,58.9,29.24,West,259,1.0,2.0,64,0.00,,,0.00,Wunderground v.1.15,2013-06-29 05:08:00,
2013-06-29 00:13:00,71.5,58.7,29.24,West,279,2.0,2.0,64,0.00,,,0.00,Wunderground v.1.15,2013-06-29 05:13:00,
2013-06-29 00:18:00,71.7,58.9,29.23,West,277,0.0,2.0,64,0.00,,,0.00,Wunderground v.1.15,2013-06-29 05:18:00,
2013-06-29 00:24:00,71.2,58.4,29.23,West,271,0.0,1.0,64,0.00,,,0.00,Wunderground v.1.15,2013-06-29 05:24:00,
2013-06-29 00:29:00,71.0,58.6,29.23,West,271,0.0,1.0,65,0.00,,,0.00,Wunderground v.1.15,2013-06-29 05:29:00,
2013-06-29 00:35:00,70.6,58.7,29.23,West,271,0.0,0.0,66,0.00,,,0.00,Wunderground v.1.15,2013-06-29 05:35:00,
2013-06-29 00:40:00,70.3,58.8,29.23,West,271,0.0,0.0,67,0.00,,,0.00,Wunderground v.1.15,2013-06-29 05:40:00,
2013-06-29 00:45:00,70.0,59.0,29.23,West,271,0.0,1.0,68,0.00,,,0.00,Wunderground v.1.15,2013-06-29 05:45:00,
2013-06-29 00:51:00,69.9,58.9,29.23,West,271,0.0,0.0,68,0.00,,,0.00,Wunderground v.1.15,2013-06-29 05:51:00,
2013-06-29 00:56:00,69.5,58.9,29.23,West,271,0.0,0.0,69,0.00,,,0.00,Wunderground v.1.15,2013-06-29 05:56:00,
2013-06-29 01:02:00,69.3,58.7,29.23,West,271,0.0,0.0,69,0.00,,,0.00,Wunderground v.1.15,2013-06-29 06:02:00,
2013-06-29 01:07:00,69.1,58.9,29.23,West,271,0.0,0.0,70,0.00,,,0.00,Wunderground v.1.15,2013-06-29 06:07:00,
2013-06-29 01:12:00,69.0,59.2,29.23,West,271,0.0,0.0,71,0.00,,,0.00,Wunderground v.1.15,2013-06-29 06:12:00,
2013-06-29 01:18:00,68.8,59.0,29.23,WSW,252,0.0,0.0,71,0.00,,,0.00,Wunderground v.1.15,2013-06-29 06:18:00,
2013-06-29 01:23:00,68.6,58.8,29.23,WSW,252,1.0,1.0,71,0.00,,,0.00,Wunderground v.1.15,2013-06-29 06:23:00,
2013-06-29 01:28:00,68.5,59.1,29.22,WSW,254,0.0,1.0,72,0.00,,,0.00,Wunderground v.1.15,2013-06-29 06:28:00,
2013-06-29 01:34:00,68.5,58.7,29.23,WSW,253,0.0,0.0,71,0.00,,,0.00,Wunderground v.1.15,2013-06-29 06:34:00,
2013-06-29 01:39:00,68.3,59.3,29.22,West,261,0.0,2.0,73,0.00,,,0.00,Wunderground v.1.15,2013-06-29 06:39:00,
2013-06-29 01:45:00,68.3,59.3,29.22,WNW,288,0.0,1.0,73,0.00,,,0.00,Wunderground v.1.15,2013-06-29 06:45:00,
2013-06-29 01:50:00,68.3,58.9,29.22,WNW,288,0.0,0.0,72,0.00,,,0.00,Wunderground v.1.15,2013-06-29 06:50:00,
2013-06-29 01:55:00,68.2,58.8,29.22,SW,233,0.0,3.0,72,0.00,,,0.00,Wunderground v.1.15,2013-06-29 06:55:00,
2013-06-29 02:00:00,68.2,58.8,29.22,SW,233,0.0,0.0,72,0.00,,,0.00,Wunderground v.1.15,2013-06-29 07:00:00,
2013-06-29 02:05:00,68.2,58.8,29.22,West,275,0.0,7.0,72,0.00,,,0.00,Wunderground v.1.15,2013-06-29 07:05:00,
2013-06-29 02:10:00,68.4,59.0,29.22,West,275,0.0,5.0,72,0.00,,,0.00,Wunderground v.1.15,2013-06-29 07:10:00,
2013-06-29 02:15:00,68.6,59.2,29.22,WNW,286,0.0,5.0,72,0.00,,,0.00,Wunderground v.1.15,2013-06-29 07:15:00,
2013-06-29 02:20:00,68.7,58.9,29.22,WNW,284,0.0,1.0,71,0.00,,,0.00,Wunderground v.1.15,2013-06-29 07:20:00,
2013-06-29 02:25:00,68.7,58.9,29.22,WSW,247,0.0,4.0,71,0.00,,,0.00,Wunderground v.1.15,2013-06-29 07:25:00,
2013-06-29 02:30:00,68.4,59.0,29.22,WSW,253,0.0,0.0,72,0.00,,,0.00,Wunderground v.1.15,2013-06-29 07:30:00,
2013-06-29 02:35:00,68.3,58.9,29.22,WNW,296,0.0,6.0,72,0.00,,,0.00,Wunderground v.1.15,2013-06-29 07:35:00,
2013-06-29 02:40:00,68.1,59.1,29.21,WNW,292,0.0,0.0,73,0.00,,,0.00,Wunderground v.1.15,2013-06-29 07:40:00,
2013-06-29 02:45:00,68.0,59.0,29.21,West,261,0.0,5.0,73,0.00,,,0.00,Wunderground v.1.15,2013-06-29 07:45:00,
2013-06-29 02:50:00,68.0,59.0,29.22,WSW,257,2.0,5.0,73,0.00,,,0.00,Wunderground v.1.15,2013-06-29 07:50:00,
2013-06-29 02:55:00,67.9,58.9,29.22,SW,225,0.0,5.0,73,0.00,,,0.00,Wunderground v.1.15,2013-06-29 07:55:00,
2013-06-29 03:00:00,67.9,59.3,29.22,WNW,287,0.0,1.0,74,0.00,,,0.00,Wunderground v.1.15,2013-06-29 08:00:00,
2013-06-29 03:05:00,68.4,58.2,29.22,WSW,246,0.0,5.0,70,0.00,,,0.00,Wunderground v.1.15,2013-06-29 08:05:00,
2013-06-29 03:10:00,67.9,58.9,29.22,WNW,291,0.0,0.0,73,0.00,,,0.00,Wunderground v.1.15,2013-06-29 08:10:00,
2013-06-29 03:15:00,67.9,59.3,29.22,West,280,1.0,5.0,74,0.00,,,0.00,Wunderground v.1.15,2013-06-29 08:15:00,
2013-06-29 03:20:00,68.1,59.1,29.22,SW,232,0.0,1.0,73,0.00,,,0.00,Wunderground v.1.15,2013-06-29 08:20:00,
2013-06-29 03:25:00,68.3,58.9,29.22,West,262,4.0,8.0,72,0.00,,,0.00,Wunderground v.1.15,2013-06-29 08:25:00,
2013-06-29 03:30:00,68.5,59.5,29.22,WSW,255,1.0,1.0,73,0.00,,,0.00,Wunderground v.1.15,2013-06-29 08:30:00,
2013-06-29 03:35:00,68.5,59.1,29.21,SW,230,0.0,7.0,72,0.00,,,0.00,Wunderground v.1.15,2013-06-29 08:35:00,
2013-06-29 03:40:00,68.4,59.0,29.21,SSW,213,0.0,0.0,72,0.00,,,0.00,Wunderground v.1.15,2013-06-29 08:40:00,
2013-06-29 03:46:00,68.3,59.3,29.21,West,259,0.0,3.0,73,0.00,,,0.00,Wunderground v.1.15,2013-06-29 08:46:00,
2013-06-29 03:51:00,68.1,59.1,29.21,West,259,0.0,0.0,73,0.00,,,0.00,Wunderground v.1.15,2013-06-29 08:51:00,
2013-06-29 03:56:00,68.0,59.0,29.21,West,259,0.0,0.0,73,0.00,,,0.00,Wunderground v.1.15,2013-06-29 08:56:00,
2013-06-29 04:01:00,67.6,59.0,29.21,West,259,0.0,2.0,74,0.00,,,0.00,Wunderground v.1.15,2013-06-29 09:01:00,
2013-06-29 04:06:00,67.4,59.2,29.21,West,280,0.0,6.0,75,0.00,,,0.00,Wunderground v.1.15,2013-06-29 09:06:00,
2013-06-29 04:11:00,67.2,59.4,29.21,West,278,0.0,0.0,76,0.00,,,0.00,Wunderground v.1.15,2013-06-29 09:11:00,
2013-06-29 04:16:00,67.1,59.3,29.22,West,277,0.0,2.0,76,0.00,,,0.00,Wunderground v.1.15,2013-06-29 09:16:00,
2013-06-29 04:21:00,66.8,59.0,29.21,West,273,0.0,2.0,76,0.00,,,0.00,Wunderground v.1.15,2013-06-29 09:21:00,
2013-06-29 04:26:00,67.0,59.5,29.22,West,263,0.0,4.0,77,0.00,,,0.00,Wunderground v.1.15,2013-06-29 09:26:00,
2013-06-29 04:31:00,66.6,59.2,29.22,SW,234,0.0,0.0,77,0.00,,,0.00,Wunderground v.1.15,2013-06-29 09:31:00,
2013-06-29 04:36:00,66.5,59.1,29.22,SW,230,0.0,1.0,77,0.00,,,0.00,Wunderground v.1.15,2013-06-29 09:36:00,
2013-06-29 04:41:00,66.5,59.1,29.22,WSW,256,0.0,0.0,77,0.00,,,0.00,Wunderground v.1.15,2013-06-29 09:41:00,
2013-06-29 04:46:00,66.5,59.1,29.22,WSW,258,0.0,8.0,77,0.00,,,0.00,Wunderground v.1.15,2013-06-29 09:46:00,
2013-06-29 04:52:00,66.6,59.2,29.22,WSW,244,0.0,5.0,77,0.00,,,0.00,Wunderground v.1.15,2013-06-29 09:52:00,
2013-06-29 04:57:00,66.8,59.4,29.22,West,270,0.0,6.0,77,0.00,,,0.00,Wunderground v.1.15,2013-06-29 09:57:00,
2013-06-29 05:02:00,66.9,59.1,29.22,WSW,249,0.0,3.0,76,0.00,,,0.00,Wunderground v.1.15,2013-06-29 10:02:00,
2013-06-29 05:07:00,66.9,59.5,29.22,WSW,240,1.0,3.0,77,0.00,,,0.00,Wunderground v.1.15,2013-06-29 10:07:00,
2013-06-29 05:12:00,66.8,59.0,29.22,West,275,0.0,6.0,76,0.00,,,0.00,Wunderground v.1.15,2013-06-29 10:12:00,
2013-06-29 05:17:00,66.9,59.1,29.23,WSW,253,2.0,6.0,76,0.00,,,0.00,Wunderground v.1.15,2013-06-29 10:17:00,
2013-06-29 05:22:00,66.9,59.1,29.23,West,259,0.0,7.0,76,0.00,,,0.00,Wunderground v.1.15,2013-06-29 10:22:00,
2013-06-29 05:27:00,66.9,59.1,29.23,West,265,0.0,8.0,76,0.00,,,0.00,Wunderground v.1.15,2013-06-29 10:27:00,
2013-06-29 05:32:00,67.0,59.2,29.23,WSW,240,0.0,4.0,76,0.00,,,0.00,Wunderground v.1.15,2013-06-29 10:32:00,
2013-06-29 05:37:00,66.9,59.1,29.23,WSW,246,0.0,7.0,76,0.00,,,0.00,Wunderground v.1.15,2013-06-29 10:37:00,
2013-06-29 05:42:00,66.9,59.1,29.22,West,277,0.0,1.0,76,0.00,,,0.00,Wunderground v.1.15,2013-06-29 10:42:00,
2013-06-29 05:47:00,66.9,59.1,29.22,WSW,249,0.0,5.0,76,0.00,,,0.00,Wunderground v.1.15,2013-06-29 10:47:00,
2013-06-29 05:52:00,66.9,59.1,29.22,WSW,248,0.0,0.0,76,0.00,,,0.00,Wunderground v.1.15,2013-06-29 10:52:00,
2013-06-29 05:57:00,66.8,59.0,29.22,WNW,296,0.0,6.0,76,0.00,,,0.00,Wunderground v.1.15,2013-06-29 10:57:00,
2013-06-29 06:02:00,66.7,59.3,29.23,SW,216,0.0,1.0,77,0.00,,,0.00,Wunderground v.1.15,2013-06-29 11:02:00,
2013-06-29 06:07:00,66.6,59.2,29.23,SW,214,3.0,6.0,77,0.00,,,0.00,Wunderground v.1.15,2013-06-29 11:07:00,
2013-06-29 06:12:00,66.6,59.2,29.23,SW,224,0.0,4.0,77,0.00,,,0.00,Wunderground v.1.15,2013-06-29 11:12:00,
2013-06-29 06:17:00,66.9,59.1,29.23,West,267,0.0,5.0,76,0.00,,,0.00,Wunderground v.1.15,2013-06-29 11:17:00,
2013-06-29 06:22:00,66.6,59.2,29.23,West,270,1.0,1.0,77,0.00,,,0.00,Wunderground v.1.15,2013-06-29 11:22:00,
2013-06-29 06:27:00,66.7,59.3,29.23,West,278,0.0,9.0,77,0.00,,,0.00,Wunderground v.1.15,2013-06-29 11:27:00,
2013-06-29 06:32:00,66.8,59.0,29.23,West,275,0.0,6.0,76,0.00,,,0.00,Wunderground v.1.15,2013-06-29 11:32:00,
2013-06-29 06:37:00,67.0,59.2,29.23,WSW,257,2.0,8.0,76,0.00,,,0.00,Wunderground v.1.15,2013-06-29 11:37:00,
2013-06-29 06:42:00,67.3,59.1,29.23,West,268,0.0,7.0,75,0.00,,,0.00,Wunderground v.1.15,2013-06-29 11:42:00,
2013-06-29 06:47:00,67.4,59.6,29.23,SSW,211,0.0,8.0,76,0.00,,,0.00,Wunderground v.1.15,2013-06-29 11:47:00,
2013-06-29 06:52:00,67.6,59.4,29.23,West,271,0.0,18.0,75,0.00,,,0.00,Wunderground v.1.15,2013-06-29 11:52:00,
2013-06-29 06:57:00,67.8,59.6,29.23,West,279,0.0,18.0,75,0.00,,,0.00,Wunderground v.1.15,2013-06-29 11:57:00,
2013-06-29 07:02:00,68.1,59.9,29.23,West,269,4.0,14.0,75,0.00,,,0.00,Wunderground v.1.15,2013-06-29 12:02:00,
2013-06-29 07:07:00,68.3,60.1,29.23,WNW,298,0.0,14.0,75,0.00,,,0.00,Wunderground v.1.15,2013-06-29 12:07:00,
2013-06-29 07:12:00,68.5,59.9,29.22,WNW,288,0.0,4.0,74,0.00,,,0.00,Wunderground v.1.15,2013-06-29 12:12:00,
2013-06-29 07:17:00,68.8,60.2,29.22,WNW,286,0.0,11.0,74,0.00,,,0.00,Wunderground v.1.15,2013-06-29 12:17:00,
2013-06-29 07:22:00,69.0,60.4,29.23,West,280,8.0,12.0,74,0.00,,,0.00,Wunderground v.1.15,2013-06-29 12:22:00,
2013-06-29 07:27:00,69.3,60.3,29.23,West,281,0.0,12.0,73,0.00,,,0.00,Wunderground v.1.15,2013-06-29 12:27:00,
2013-06-29 07:32:00,69.5,60.5,29.23,West,272,0.0,11.0,73,0.00,,,0.00,Wunderground v.1.15,2013-06-29 12:32:00,
2013-06-29 07:37:00,69.7,60.7,29.23,West,275,0.0,11.0,73,0.00,,,0.00,Wunderground v.1.15,2013-06-29 12:37:00,
2013-06-29 07:42:00,69.9,60.8,29.23,NW,310,0.0,12.0,73,0.00,,,0.00,Wunderground v.1.15,2013-06-29 12:42:00,
2013-06-29 07:47:00,70.0,60.6,29.23,SW,236,0.0,16.0,72,0.00,,,0.00,Wunderground v.1.15,2013-06-29 12:47:00,
2013-06-29 07:52:00,70.2,60.7,29.23,WNW,284,2.0,7.0,72,0.00,,,0.00,Wunderground v.1.15,2013-06-29 12:52:00,
2013-06-29 07:57:00,70.2,61.1,29.23,WNW,298,1.0,13.0,73,0.00,,,0.00,Wunderground v.1.15,2013-06-29 12:57:00,
2013-06-29 08:02:00,70.3,61.2,29.23,WNW,295,0.0,9.0,73,0.00,,,0.00,Wunderground v.1.15,2013-06-29 13:02:00,
2013-06-29 08:07:00,70.3,61.2,29.23,WNW,296,0.0,12.0,73,0.00,,,0.00,Wunderground v.1.15,2013-06-29 13:07:00,
2013-06-29 08:12:00,70.4,60.9,29.23,WNW,288,5.0,12.0,72,0.00,,,0.00,Wunderground v.1.15,2013-06-29 13:12:00,
2013-06-29 08:17:00,70.4,-99.9,29.23,West,274,0.0,12.0,255,0.00,,,0.00,Wunderground v.1.15,2013-06-29 13:17:00,
2013-06-29 08:22:00,70.7,61.6,29.23,WSW,250,0.0,5.0,73,0.00,,,0.00,Wunderground v.1.15,2013-06-29 13:22:00,
2013-06-29 08:27:00,70.8,61.7,29.23,NW,313,0.0,19.0,73,0.00,,,0.00,Wunderground v.1.15,2013-06-29 13:27:00,
2013-06-29 08:32:00,71.1,62.0,29.23,NW,304,6.0,7.0,73,0.00,,,0.00,Wunderground v.1.15,2013-06-29 13:32:00,
2013-06-29 08:37:00,71.0,61.9,29.23,North,5,8.0,13.0,73,0.00,,,0.00,Wunderground v.1.15,2013-06-29 13:37:00,
2013-06-29 08:42:00,71.0,61.9,29.23,WNW,287,5.0,14.0,73,0.00,,,0.00,Wunderground v.1.15,2013-06-29 13:42:00,
2013-06-29 08:47:00,70.9,62.2,29.23,NNE,14,0.0,15.0,74,0.00,,,0.00,Wunderground v.1.15,2013-06-29 13:47:00,
2013-06-29 08:52:00,71.1,62.0,29.23,NNW,329,5.0,11.0,73,0.00,,,0.00,Wunderground v.1.15,2013-06-29 13:52:00,
2013-06-29 08:57:00,71.4,62.7,29.23,WSW,243,0.0,13.0,74,0.00,,,0.00,Wunderground v.1.15,2013-06-29 13:57:00,
2013-06-29 09:02:00,71.8,62.7,29.22,West,261,0.0,11.0,73,0.00,,,0.00,Wunderground v.1.15,2013-06-29 14:02:00,
2013-06-29 09:07:00,72.4,62.1,29.22,West,262,8.0,11.0,70,0.00,,,0.00,Wunderground v.1.15,2013-06-29 14:07:00,
2013-06-29 09:12:00,72.3,62.4,29.22,West,278,0.0,8.0,71,0.00,,,0.00,Wunderground v.1.15,2013-06-29 14:12:00,
2013-06-29 09:17:00,72.3,62.8,29.22,NNW,346,6.0,11.0,72,0.00,,,0.00,Wunderground v.1.15,2013-06-29 14:17:00,
2013-06-29 09:22:00,72.7,62.8,29.22,NNW,333,2.0,12.0,71,0.00,,,0.00,Wunderground v.1.15,2013-06-29 14:22:00,
2013-06-29 09:27:00,72.9,62.9,29.22,WSW,252,7.0,14.0,71,0.00,,,0.00,Wunderground v.1.15,2013-06-29 14:27:00,
2013-06-29 09:32:00,72.9,62.9,29.22,NW,319,7.0,8.0,71,0.00,,,0.00,Wunderground v.1.15,2013-06-29 14:32:00,
2013-06-29 09:37:00,72.6,62.3,29.22,WNW,295,5.0,16.0,70,0.00,,,0.00,Wunderground v.1.15,2013-06-29 14:37:00,
2013-06-29 09:42:00,72.9,62.5,29.22,North,360,2.0,15.0,70,0.00,,,0.00,Wunderground v.1.15,2013-06-29 14:42:00,
2013-06-29 09:47:00,73.3,62.9,29.21,West,278,0.0,15.0,70,0.00,,,0.00,Wunderground v.1.15,2013-06-29 14:47:00,
2013-06-29 09:52:00,73.6,63.6,29.22,WNW,282,0.0,12.0,71,0.00,,,0.00,Wunderground v.1.15,2013-06-29 14:52:00,
2013-06-29 09:57:00,73.8,63.4,29.21,NNW,328,0.0,12.0,70,0.00,,,0.00,Wunderground v.1.15,2013-06-29 14:57:00,
2013-06-29 10:02:00,73.8,62.6,29.21,NNW,345,0.0,9.0,68,0.00,,,0.00,Wunderground v.1.15,2013-06-29 15:02:00,
2013-06-29 10:07:00,73.9,-99.9,29.21,WNW,290,9.0,12.0,255,0.00,,,0.00,Wunderground v.1.15,2013-06-29 15:07:00,
2013-06-29 10:12:00,73.9,62.7,29.21,WNW,297,7.0,7.0,68,0.00,,,0.00,Wunderground v.1.15,2013-06-29 15:12:00,
2013-06-29 10:17:00,73.8,62.6,29.21,NW,318,0.0,14.0,68,0.00,,,0.00,Wunderground v.1.15,2013-06-29 15:17:00,
2013-06-29 10:23:00,73.8,63.4,29.21,NNW,336,0.0,11.0,70,0.00,,,0.00,Wunderground v.1.15,2013-06-29 15:23:00,
2013-06-29 10:28:00,73.9,62.7,29.21,WNW,289,2.0,15.0,68,0.00,,,0.00,Wunderground v.1.15,2013-06-29 15:28:00,
2013-06-29 10:33:00,74.0,63.2,29.21,North,355,0.0,9.0,69,0.00,,,0.00,Wunderground v.1.15,2013-06-29 15:33:00,
2013-06-29 10:38:00,74.0,62.8,29.22,NW,323,7.0,17.0,68,0.00,,,0.00,Wunderground v.1.15,2013-06-29 15:38:00,
2013-06-29 10:43:00,73.9,63.1,29.22,NNW,327,0.0,5.0,69,0.00,,,0.00,Wunderground v.1.15,2013-06-29 15:43:00,
2013-06-29 10:48:00,74.2,62.5,29.21,NW,326,6.0,17.0,67,0.00,,,0.00,Wunderground v.1.15,2013-06-29 15:48:00,
2013-06-29 10:53:00,74.8,63.5,29.21,WNW,282,0.0,5.0,68,0.00,,,0.00,Wunderground v.1.15,2013-06-29 15:53:00,
2013-06-29 10:58:00,75.0,62.9,29.21,WNW,292,12.0,17.0,66,0.00,,,0.00,Wunderground v.1.15,2013-06-29 15:58:00,
2013-06-29 11:03:00,75.0,62.9,29.21,NW,319,1.0,11.0,66,0.00,,,0.00,Wunderground v.1.15,2013-06-29 16:03:00,
2013-06-29 11:08:00,74.7,62.6,29.21,West,270,0.0,14.0,66,0.00,,,0.00,Wunderground v.1.15,2013-06-29 16:08:00,
2013-06-29 11:13:00,75.0,62.0,29.21,NW,323,4.0,13.0,64,0.00,,,0.00,Wunderground v.1.15,2013-06-29 16:13:00,
2013-06-29 11:18:00,75.1,62.5,29.21,WNW,284,0.0,20.0,65,0.00,,,0.00,Wunderground v.1.15,2013-06-29 16:18:00,
2013-06-29 11:23:00,-999.9,-99.9,29.21,WNW,302,4.0,14.0,255,0.00,,,0.00,Wunderground v.1.15,2013-06-29 16:23:00,
2013-06-29 11:28:00,75.1,62.5,29.21,NNW,333,5.0,15.0,65,0.00,,,0.00,Wunderground v.1.15,2013-06-29 16:28:00,
2013-06-29 11:33:00,75.7,63.5,29.21,WNW,298,0.0,13.0,66,0.00,,,0.00,Wunderground v.1.15,2013-06-29 16:33:00,
2013-06-29 11:38:00,75.7,62.7,29.21,West,272,13.0,15.0,64,0.00,,,0.00,Wunderground v.1.15,2013-06-29 16:38:00,
2013-06-29 11:43:00,75.5,62.9,29.21,NNW,334,0.0,9.0,65,0.00,,,0.00,Wunderground v.1.15,2013-06-29 16:43:00,
2013-06-29 11:48:00,75.6,63.4,29.21,North,5,0.0,15.0,66,0.00,,,0.00,Wunderground v.1.15,2013-06-29 16:48:00,
2013-06-29 11:53:00,76.3,63.7,29.21,West,281,4.0,9.0,65,0.00,,,0.00,Wunderground v.1.15,2013-06-29 16:53:00,
2013-06-29 11:58:00,76.7,63.2,29.21,NW,319,0.0,15.0,63,0.00,,,0.00,Wunderground v.1.15,2013-06-29 16:58:00,
2013-06-29 12:03:00,76.8,63.7,29.21,WNW,300,15.0,20.0,64,0.00,,,0.00,Wunderground v.1.15,2013-06-29 17:03:00,
2013-06-29 12:08:00,76.8,63.7,29.21,West,276,4.0,20.0,64,0.00,,,0.00,Wunderground v.1.15,2013-06-29 17:08:00,
2013-06-29 12:13:00,77.3,63.7,29.21,West,279,7.0,20.0,63,0.00,,,0.00,Wunderground v.1.15,2013-06-29 17:13:00,
2013-06-29 12:18:00,77.7,64.1,29.21,North,355,5.0,20.0,63,0.00,,,0.00,Wunderground v.1.15,2013-06-29 17:18:00,
2013-06-29 12:23:00,77.5,63.0,29.20,WNW,287,6.0,11.0,61,0.00,,,0.00,Wunderground v.1.15,2013-06-29 17:23:00,
2013-06-29 12:28:00,76.7,62.7,29.20,WSW,251,6.0,13.0,62,0.00,,,0.00,Wunderground v.1.15,2013-06-29 17:28:00,
2013-06-29 12:33:00,76.6,63.1,29.20,WNW,300,0.0,8.0,63,0.00,,,0.00,Wunderground v.1.15,2013-06-29 17:33:00,
2013-06-29 12:38:00,77.2,63.6,29.20,WSW,247,18.0,21.0,63,0.00,,,0.00,Wunderground v.1.15,2013-06-29 17:38:00,
2013-06-29 12:43:00,77.4,62.9,29.20,NW,323,0.0,20.0,61,0.00,,,0.00,Wunderground v.1.15,2013-06-29 17:43:00,
2013-06-29 12:48:00,77.9,62.9,29.20,NW,313,0.0,20.0,60,0.00,,,0.00,Wunderground v.1.15,2013-06-29 17:48:00,
2013-06-29 12:53:00,78.4,62.4,29.20,NW,311,0.0,16.0,58,0.00,,,0.00,Wunderground v.1.15,2013-06-29 17:53:00,
2013-06-29 12:58:00,78.2,63.2,29.20,WNW,287,16.0,16.0,60,0.00,,,0.00,Wunderground v.1.15,2013-06-29 17:58:00,
2013-06-29 13:03:00,78.4,63.4,29.20,NW,320,1.0,10.0,60,0.00,,,0.00,Wunderground v.1.15,2013-06-29 18:03:00,
2013-06-29 13:08:00,78.4,62.4,29.20,West,273,5.0,13.0,58,0.00,,,0.00,Wunderground v.1.15,2013-06-29 18:08:00,
2013-06-29 13:13:00,78.3,62.3,29.19,West,268,8.0,17.0,58,0.00,,,0.00,Wunderground v.1.15,2013-06-29 18:13:00,
2013-06-29 13:18:00,78.6,62.6,29.19,NW,326,4.0,17.0,58,0.00,,,0.00,Wunderground v.1.15,2013-06-29 18:18:00,
2013-06-29 13:23:00,79.3,62.7,29.19,NNW,340,0.0,16.0,57,0.00,,,0.00,Wunderground v.1.15,2013-06-29 18:23:00,
2013-06-29 13:28:00,79.4,63.8,29.19,NW,315,10.0,16.0,59,0.00,,,0.00,Wunderground v.1.15,2013-06-29 18:28:00,
2013-06-29 13:33:00,79.1,62.6,29.19,West,269,8.0,18.0,57,0.00,,,0.00,Wunderground v.1.15,2013-06-29 18:33:00,
2013-06-29 13:38:00,78.6,61.6,29.19,NW,304,0.0,18.0,56,0.00,,,0.00,Wunderground v.1.15,2013-06-29 18:38:00,
2013-06-29 13:43:00,78.2,62.2,29.19,West,279,11.0,21.0,58,0.00,,,0.00,Wunderground v.1.15,2013-06-29 18:43:00,
2013-06-29 13:48:00,78.2,62.7,29.19,WNW,284,18.0,21.0,59,0.00,,,0.00,Wunderground v.1.15,2013-06-29 18:48:00,
2013-06-29 13:53:00,78.5,61.0,29.19,NW,325,4.0,11.0,55,0.00,,,0.00,Wunderground v.1.15,2013-06-29 18:53:00,
2013-06-29 13:58:00,-999.9,-99.9,29.19,NW,321,10.0,19.0,255,0.00,,,0.00,Wunderground v.1.15,2013-06-29 18:58:00,
2013-06-29 14:03:00,76.6,58.7,29.19,NNW,347,5.0,10.0,54,0.00,,,0.00,Wunderground v.1.15,2013-06-29 19:03:00,
2013-06-29 14:08:00,76.3,59.9,29.19,North,350,0.0,10.0,57,0.00,,,0.00,Wunderground v.1.15,2013-06-29 19:08:00,
2013-06-29 14:13:00,76.5,61.6,29.19,WNW,284,0.0,9.0,60,0.00,,,0.00,Wunderground v.1.15,2013-06-29 19:13:00,
2013-06-29 14:18:00,77.3,62.3,29.19,NW,320,0.0,10.0,60,0.00,,,0.00,Wunderground v.1.15,2013-06-29 19:18:00,
2013-06-29 14:23:00,77.9,61.9,29.19,WSW,247,0.0,9.0,58,0.00,,,0.00,Wunderground v.1.15,2013-06-29 19:23:00,
2013-06-29 14:28:00,78.0,62.0,29.20,NW,304,0.0,12.0,58,0.00,,,0.00,Wunderground v.1.15,2013-06-29 19:28:00,
2013-06-29 14:33:00,77.7,62.7,29.19,NW,312,2.0,7.0,60,0.00,,,0.00,Wunderground v.1.15,2013-06-29 19:33:00,
2013-06-29 14:38:00,77.5,62.5,29.19,West,259,10.0,10.0,60,0.00,,,0.00,Wunderground v.1.15,2013-06-29 19:38:00,
2013-06-29 14:43:00,77.3,62.3,29.20,SW,230,0.0,6.0,60,0.00,,,0.00,Wunderground v.1.15,2013-06-29 19:43:00,
2013-06-29 14:48:00,76.8,61.4,29.20,West,266,0.0,27.0,59,0.00,,,0.00,Wunderground v.1.15,2013-06-29 19:48:00,
2013-06-29 14:53:00,77.1,62.1,29.19,West,281,14.0,14.0,60,0.00,,,0.00,Wunderground v.1.15,2013-06-29 19:53:00,
2013-06-29 14:58:00,77.2,61.8,29.20,WNW,300,1.0,14.0,59,0.00,,,0.00,Wunderground v.1.15,2013-06-29 19:58:00,
2013-06-29 15:03:00,76.1,60.7,29.22,West,276,13.0,22.0,59,0.00,,,0.00,Wunderground v.1.15,2013-06-29 20:03:00,
2013-06-29 15:08:00,71.2,58.8,29.24,West,269,0.0,22.0,65,1.23,,,0.05,Wunderground v.1.15,2013-06-29 20:08:00,
2013-06-29 15:13:00,66.6,58.1,29.24,NNW,340,0.0,14.0,74,0.88,,,0.12,Wunderground v.1.15,2013-06-29 20:13:00,
2013-06-29 15:18:00,64.5,58.5,29.24,NW,312,4.0,14.0,81,0.40,,,0.17,Wunderground v.1.15,2013-06-29 20:18:00,
2013-06-29 15:24:00,63.6,59.3,29.24,NW,316,1.0,9.0,86,0.25,,,0.19,Wunderground v.1.15,2013-06-29 20:24:00,
2013-06-29 15:29:00,63.4,59.5,29.24,NW,323,4.0,9.0,87,0.11,,,0.20,Wunderground v.1.15,2013-06-29 20:29:00,
2013-06-29 15:34:00,63.3,60.0,29.23,NW,319,0.0,4.0,89,0.08,,,0.20,Wunderground v.1.15,2013-06-29 20:34:00,
2013-06-29 15:39:00,63.5,60.2,29.23,NW,317,0.0,4.0,89,0.05,,,0.20,Wunderground v.1.15,2013-06-29 20:39:00,
2013-06-29 15:44:00,63.6,60.6,29.23,WNW,300,0.0,5.0,90,0.05,,,0.21,Wunderground v.1.15,2013-06-29 20:44:00,
2013-06-29 15:49:00,63.8,61.1,29.23,WNW,300,0.0,5.0,91,0.05,,,0.21,Wunderground v.1.15,2013-06-29 20:49:00,
2013-06-29 15:54:00,63.9,61.2,29.23,WNW,300,0.0,0.0,91,0.04,,,0.21,Wunderground v.1.15,2013-06-29 20:54:00,
2013-06-29 15:59:00,64.0,61.3,29.23,WNW,300,0.0,1.0,91,0.00,,,0.21,Wunderground v.1.15,2013-06-29 20:59:00,
2013-06-29 16:04:00,64.3,61.6,29.23,WNW,300,0.0,0.0,91,0.00,,,0.21,Wunderground v.1.15,2013-06-29 21:04:00,
2013-06-29 16:09:00,64.4,62.0,29.23,WNW,300,0.0,0.0,92,0.00,,,0.21,Wunderground v.1.15,2013-06-29 21:09:00,
2013-06-29 16:14:00,64.7,62.3,29.23,WNW,294,0.0,0.0,92,0.00,,,0.21,Wunderground v.1.15,2013-06-29 21:14:00,
2013-06-29 16:19:00,65.0,62.6,29.23,WNW,294,0.0,0.0,92,0.00,,,0.21,Wunderground v.1.15,2013-06-29 21:19:00,
2013-06-29 16:24:00,65.4,63.3,29.23,WNW,294,0.0,0.0,93,0.00,,,0.21,Wunderground v.1.15,2013-06-29 21:24:00,
2013-06-29 16:29:00,65.8,63.7,29.23,WNW,293,0.0,6.0,93,0.00,,,0.21,Wunderground v.1.15,2013-06-29 21:29:00,
2013-06-29 16:34:00,66.1,63.7,29.23,WNW,293,0.0,0.0,92,0.00,,,0.21,Wunderground v.1.15,2013-06-29 21:34:00,
2013-06-29 16:39:00,66.4,64.0,29.23,WNW,293,0.0,0.0,92,0.00,,,0.21,Wunderground v.1.15,2013-06-29 21:39:00,
2013-06-29 16:44:00,66.8,64.7,29.23,WNW,293,0.0,0.0,93,0.00,,,0.21,Wunderground v.1.15,2013-06-29 21:44:00,
2013-06-29 16:49:00,67.0,64.6,29.23,WNW,294,1.0,1.0,92,0.00,,,0.21,Wunderground v.1.15,2013-06-29 21:49:00,
2013-06-29 16:54:00,67.3,64.6,29.22,WNW,293,0.0,1.0,91,0.00,,,0.21,Wunderground v.1.15,2013-06-29 21:54:00,
2013-06-29 16:59:00,67.7,65.3,29.22,WNW,293,0.0,4.0,92,0.00,,,0.21,Wunderground v.1.15,2013-06-29 21:59:00,
2013-06-29 17:04:00,68.3,65.6,29.22,WNW,293,0.0,2.0,91,0.00,,,0.21,Wunderground v.1.15,2013-06-29 22:04:00,
2013-06-29 17:09:00,69.0,66.3,29.22,NW,307,0.0,7.0,91,0.00,,,0.21,Wunderground v.1.15,2013-06-29 22:09:00,
2013-06-29 17:14:00,69.7,67.3,29.22,NW,309,4.0,7.0,92,0.00,,,0.21,Wunderground v.1.15,2013-06-29 22:14:00,
2013-06-29 17:19:00,70.2,67.1,29.22,NW,312,0.0,7.0,90,0.00,,,0.21,Wunderground v.1.15,2013-06-29 22:19:00,
2013-06-29 17:24:00,70.9,67.5,29.21,NW,312,2.0,2.0,89,0.00,,,0.21,Wunderground v.1.15,2013-06-29 22:24:00,
2013-06-29 17:29:00,71.4,68.0,29.21,NW,312,0.0,5.0,89,0.00,,,0.21,Wunderground v.1.15,2013-06-29 22:29:00,
2013-06-29 17:34:00,71.5,66.8,29.21,NW,312,0.0,6.0,85,0.00,,,0.21,Wunderground v.1.15,2013-06-29 22:34:00,
2013-06-29 17:39:00,71.5,66.8,29.20,NW,312,0.0,6.0,85,0.00,,,0.21,Wunderground v.1.15,2013-06-29 22:39:00,
2013-06-29 17:44:00,71.5,67.1,29.20,NW,312,0.0,1.0,86,0.00,,,0.21,Wunderground v.1.15,2013-06-29 22:44:00,
2013-06-29 17:49:00,71.6,66.8,29.20,NW,312,0.0,6.0,85,0.00,,,0.21,Wunderground v.1.15,2013-06-29 22:49:00,
2013-06-29 17:54:00,72.0,66.9,29.20,NW,312,0.0,5.0,84,0.00,,,0.21,Wunderground v.1.15,2013-06-29 22:54:00,
2013-06-29 17:59:00,71.5,66.4,29.21,WNW,302,2.0,11.0,84,0.00,,,0.21,Wunderground v.1.15,2013-06-29 22:59:00,
2013-06-29 18:05:00,70.3,64.5,29.22,WNW,302,6.0,13.0,82,0.00,,,0.21,Wunderground v.1.15,2013-06-29 23:05:00,
2013-06-29 18:10:00,69.5,64.1,29.22,NW,321,5.0,13.0,83,0.00,,,0.21,Wunderground v.1.15,2013-06-29 23:10:00,
2013-06-29 18:15:00,69.0,64.0,29.22,NNW,336,5.0,9.0,84,0.00,,,0.21,Wunderground v.1.15,2013-06-29 23:15:00,
2013-06-29 18:20:00,68.7,64.0,29.23,NW,316,0.0,2.0,85,0.00,,,0.21,Wunderground v.1.15,2013-06-29 23:20:00,
2013-06-29 18:25:00,68.5,63.8,29.22,North,360,6.0,11.0,85,0.00,,,0.21,Wunderground v.1.15,2013-06-29 23:25:00,
2013-06-29 18:30:00,68.3,63.6,29.23,NNW,333,6.0,7.0,85,0.00,,,0.21,Wunderground v.1.15,2013-06-29 23:30:00,
2013-06-29 18:35:00,68.5,63.8,29.23,NW,306,2.0,9.0,85,0.00,,,0.21,Wunderground v.1.15,2013-06-29 23:35:00,
2013-06-29 18:40:00,68.2,63.5,29.23,NW,315,4.0,6.0,85,0.00,,,0.21,Wunderground v.1.15,2013-06-29 23:40:00,
2013-06-29 18:45:00,68.1,63.4,29.23,NNW,329,0.0,10.0,85,0.00,,,0.21,Wunderground v.1.15,2013-06-29 23:45:00,
2013-06-29 18:50:00,67.9,63.2,29.23,NW,320,0.0,1.0,85,0.00,,,0.21,Wunderground v.1.15,2013-06-29 23:50:00,
2013-06-29 18:55:00,67.7,62.7,29.24,NNW,343,0.0,7.0,84,0.00,,,0.21,Wunderground v.1.15,2013-06-29 23:55:00,
2013-06-29 19:00:00,67.5,62.8,29.24,NNW,338,0.0,2.0,85,0.00,,,0.21,Wunderground v.1.15,2013-06-30 00:00:00,
2013-06-29 19:05:00,67.3,63.0,29.24,NNW,335,0.0,5.0,86,0.00,,,0.21,Wunderground v.1.15,2013-06-30 00:05:00,
2013-06-29 19:10:00,67.2,62.9,29.24,NW,325,0.0,0.0,86,0.00,,,0.21,Wunderground v.1.15,2013-06-30 00:10:00,
2013-06-29 19:15:00,67.2,63.2,29.24,WNW,297,1.0,8.0,87,0.00,,,0.21,Wunderground v.1.15,2013-06-30 00:15:00,
2013-06-29 19:20:00,67.2,63.2,29.25,NW,321,0.0,1.0,87,0.00,,,0.21,Wunderground v.1.15,2013-06-30 00:20:00,
2013-06-29 19:25:00,67.3,-99.9,29.25,NW,306,0.0,4.0,255,0.00,,,0.21,Wunderground v.1.15,2013-06-30 00:25:00,
2013-06-29 19:30:00,67.1,63.1,29.25,NW,308,0.0,0.0,87,0.00,,,0.21,Wunderground v.1.15,2013-06-30 00:30:00,
2013-06-29 19:35:00,67.7,63.7,29.25,NNW,330,0.0,5.0,87,0.00,,,0.21,Wunderground v.1.15,2013-06-30 00:35:00,
2013-06-29 19:40:00,66.8,63.1,29.25,WNW,290,0.0,2.0,88,0.00,,,0.21,Wunderground v.1.15,2013-06-30 00:40:00,
2013-06-29 19:45:00,66.7,63.0,29.25,WNW,285,0.0,7.0,88,0.00,,,0.21,Wunderground v.1.15,2013-06-30 00:45:00,
2013-06-29 19:50:00,66.8,63.1,29.25,WNW,292,0.0,1.0,88,0.00,,,0.21,Wunderground v.1.15,2013-06-30 00:50:00,
2013-06-29 19:55:00,66.7,63.0,29.25,NW,304,0.0,6.0,88,0.00,,,0.21,Wunderground v.1.15,2013-06-30 00:55:00,
2013-06-29 20:00:00,66.8,63.5,29.26,WNW,289,0.0,4.0,89,0.00,,,0.21,Wunderground v.1.15,2013-06-30 01:00:00,
2013-06-29 20:06:00,66.8,63.5,29.26,NW,306,0.0,7.0,89,0.00,,,0.21,Wunderground v.1.15,2013-06-30 01:06:00,
2013-06-29 20:11:00,66.8,63.1,29.25,NW,325,0.0,1.0,88,0.00,,,0.21,Wunderground v.1.15,2013-06-30 01:11:00,
2013-06-29 20:16:00,66.7,63.4,29.25,WNW,286,7.0,7.0,89,0.00,,,0.21,Wunderground v.1.15,2013-06-30 01:16:00,
2013-06-29 20:21:00,-999.9,-99.9,29.25,West,263,0.0,1.0,89,0.00,,,0.21,Wunderground v.1.15,2013-06-30 01:21:00,
2013-06-29 20:26:00,66.5,63.2,29.25,WNW,290,0.0,5.0,89,0.00,,,0.21,Wunderground v.1.15,2013-06-30 01:26:00,
2013-06-29 20:31:00,66.3,63.0,29.25,WNW,299,0.0,0.0,89,0.00,,,0.21,Wunderground v.1.15,2013-06-30 01:31:00,
2013-06-29 20:36:00,66.2,62.9,29.25,WNW,289,0.0,2.0,89,0.00,,,0.21,Wunderground v.1.15,2013-06-30 01:36:00,
2013-06-29 20:41:00,66.2,63.2,29.25,WNW,285,0.0,0.0,90,0.00,,,0.21,Wunderground v.1.15,2013-06-30 01:41:00,
2013-06-29 20:46:00,66.1,63.1,29.25,WNW,294,1.0,6.0,90,0.00,,,0.21,Wunderground v.1.15,2013-06-30 01:46:00,
2013-06-29 20:51:00,66.0,63.0,29.26,WNW,295,0.0,2.0,90,0.00,,,0.21,Wunderground v.1.15,2013-06-30 01:51:00,
2013-06-29 20:56:00,66.0,63.0,29.26,WNW,295,0.0,4.0,90,0.00,,,0.21,Wunderground v.1.15,2013-06-30 01:56:00,
2013-06-29 21:01:00,66.8,64.1,29.26,NW,313,0.0,5.0,91,0.00,,,0.21,Wunderground v.1.15,2013-06-30 02:01:00,
2013-06-29 21:06:00,65.9,63.2,29.26,NW,311,0.0,7.0,91,0.00,,,0.21,Wunderground v.1.15,2013-06-30 02:06:00,
2013-06-29 21:11:00,65.7,63.0,29.27,NW,304,0.0,4.0,91,0.00,,,0.21,Wunderground v.1.15,2013-06-30 02:11:00,
2013-06-29 21:16:00,65.4,62.4,29.27,NW,317,0.0,10.0,90,0.00,,,0.21,Wunderground v.1.15,2013-06-30 02:16:00,
2013-06-29 21:21:00,65.4,62.1,29.27,NW,315,4.0,14.0,89,0.00,,,0.21,Wunderground v.1.15,2013-06-30 02:21:00,
2013-06-29 21:26:00,64.8,61.8,29.28,NNW,338,0.0,14.0,90,0.00,,,0.21,Wunderground v.1.15,2013-06-30 02:26:00,
2013-06-29 21:31:00,64.5,61.5,29.28,NW,315,0.0,5.0,90,0.00,,,0.21,Wunderground v.1.15,2013-06-30 02:31:00,
2013-06-29 21:36:00,64.3,61.3,29.28,NNW,343,0.0,7.0,90,0.00,,,0.21,Wunderground v.1.15,2013-06-30 02:36:00,
2013-06-29 21:41:00,64.0,61.3,29.28,NW,319,0.0,6.0,91,0.00,,,0.21,Wunderground v.1.15,2013-06-30 02:41:00,
2013-06-29 21:46:00,64.4,61.7,29.29,NNW,336,6.0,8.0,91,0.00,,,0.21,Wunderground v.1.15,2013-06-30 02:46:00,
2013-06-29 21:51:00,63.7,61.0,29.28,NW,312,0.0,7.0,91,0.00,,,0.21,Wunderground v.1.15,2013-06-30 02:51:00,
2013-06-29 21:56:00,63.7,61.0,29.29,NW,312,0.0,12.0,91,0.00,,,0.21,Wunderground v.1.15,2013-06-30 02:56:00,
2013-06-29 22:01:00,63.5,60.8,29.28,NNW,341,0.0,3.0,91,0.00,,,0.21,Wunderground v.1.15,2013-06-30 03:01:00,
2013-06-29 22:06:00,63.4,60.7,29.29,NNW,337,0.0,7.0,91,0.00,,,0.21,Wunderground v.1.15,2013-06-30 03:06:00,
2013-06-29 22:11:00,63.3,60.6,29.29,NNW,327,0.0,1.0,91,0.00,,,0.21,Wunderground v.1.15,2013-06-30 03:11:00,
2013-06-29 22:16:00,63.2,60.5,29.29,NNW,338,2.0,8.0,91,0.00,,,0.21,Wunderground v.1.15,2013-06-30 03:16:00,
2013-06-29 22:21:00,63.1,60.7,29.29,NW,317,0.0,6.0,92,0.00,,,0.21,Wunderground v.1.15,2013-06-30 03:21:00,
2013-06-29 22:26:00,63.2,60.5,29.29,WNW,302,0.0,8.0,91,0.00,,,0.21,Wunderground v.1.15,2013-06-30 03:26:00,
2013-06-29 22:32:00,63.1,60.7,29.29,NW,323,5.0,8.0,92,0.00,,,0.21,Wunderground v.1.15,2013-06-30 03:32:00,
2013-06-29 22:37:00,63.2,60.8,29.30,WNW,297,0.0,8.0,92,0.00,,,0.21,Wunderground v.1.15,2013-06-30 03:37:00,
2013-06-29 22:42:00,63.2,60.5,29.29,NW,314,0.0,2.0,91,0.00,,,0.21,Wunderground v.1.15,2013-06-30 03:42:00,
2013-06-29 22:47:00,63.1,60.7,29.30,WNW,302,0.0,4.0,92,0.00,,,0.21,Wunderground v.1.15,2013-06-30 03:47:00,
2013-06-29 22:52:00,63.4,60.7,29.31,NW,323,2.0,4.0,91,0.00,,,0.21,Wunderground v.1.15,2013-06-30 03:52:00,
2013-06-29 22:57:00,63.2,60.8,29.30,NW,311,0.0,6.0,92,0.00,,,0.21,Wunderground v.1.15,2013-06-30 03:57:00,
2013-06-29 23:01:00,63.4,60.7,29.30,NW,321,4.0,4.0,91,0.00,,,0.21,Wunderground v.1.15,2013-06-30 04:01:00,
2013-06-29 23:06:00,63.4,61.0,29.30,WNW,296,0.0,6.0,92,0.00,,,0.21,Wunderground v.1.15,2013-06-30 04:06:00,
2013-06-29 23:11:00,63.3,61.2,29.30,WNW,297,0.0,1.0,93,0.00,,,0.21,Wunderground v.1.15,2013-06-30 04:11:00,
2013-06-29 23:16:00,63.3,60.9,29.30,NW,311,5.0,5.0,92,0.00,,,0.21,Wunderground v.1.15,2013-06-30 04:16:00,
2013-06-29 23:21:00,63.4,61.3,29.30,NNW,331,0.0,4.0,93,0.00,,,0.21,Wunderground v.1.15,2013-06-30 04:21:00,
2013-06-29 23:26:00,63.4,61.3,29.30,NNW,331,0.0,5.0,93,0.00,,,0.21,Wunderground v.1.15,2013-06-30 04:26:00,
2013-06-29 23:31:00,63.5,61.4,29.30,NW,323,0.0,4.0,93,0.00,,,0.21,Wunderground v.1.15,2013-06-30 04:31:00,
2013-06-29 23:36:00,63.5,61.4,29.30,NW,321,0.0,4.0,93,0.00,,,0.21,Wunderground v.1.15,2013-06-30 04:36:00,
2013-06-29 23:41:00,63.6,61.5,29.30,WNW,295,0.0,8.0,93,0.00,,,0.21,Wunderground v.1.15,2013-06-30 04:41:00,
2013-06-29 23:46:00,63.7,61.6,29.30,NNW,328,5.0,8.0,93,0.00,,,0.21,Wunderground v.1.15,2013-06-30 04:46:00,
2013-06-29 23:51:00,63.9,61.8,29.31,NW,317,1.0,2.0,93,0.00,,,0.21,Wunderground v.1.15,2013-06-30 04:51:00,
2013-06-29 23:56:00,63.9,61.8,29.31,WNW,292,0.0,5.0,93,0.00,,,0.21,Wunderground v.1.15,2013-06-30 04:56:00,